Flag for Germany Weather past 2 weeks in Neumünster, Schleswig-Holstein, Germany

Now
57 °F

Clear.


Feels Like: 57 °F
Forecast: 49 / 68 °F
Wind: 2 mph from Northeast

Location: Itzehoe

Current Time: Sep 3, 2014 at 12:04:51 AM

Latest Report: Sep 2, 2014 at 10:00 PM


Visibility: 22 mi

Pressure: 30.30 "Hg

Humidity: 87%

Dew point: 53 °F

Location of NeumünsterLocation

Historic Weather in Neumünster — Graph

°F

Neumünster temperature yesterday

Maximum temperature yesterday: 70 °F (at 3:00 PM)
Minimum temperature yesterday: 56 °F (at 7:00 AM)
Average temperature yesterday: 63 °F

Past Weeks' High & Low Weather Summary

 TemperatureHumidityPressure
High73 °F (Aug 28, 4:00 PM)100% (Aug 28, 4:00 AM)30.30 "Hg (Aug 28, 4:00 AM)
Low39 °F (Aug 26, 7:00 AM)37% (Aug 28, 4:00 PM)29.62 "Hg (Aug 18, 10:00 PM)
Average57 °F83%29.92 "Hg
* Reported Aug 18 10:00 PM — Sep 2 10:00 PM, Neumünster, Weather by CustomWeather, © 2014

Note: Actual official high and low records may vary slightly from our data, if they occured in-between our weather recording intervals... More about our weather records

Advertising

Neumünster weather history for previous 24 hours

 ConditionsComfort  
Time TempWeatherWind HumidityBarometerVisibility
10:00 PM
Sep 2
57 °FClear.2 mph87%30.30 "Hg22 mi
9:00 PM59 °FClear.3 mph83%30.29 "Hg25 mi
7:00 PM67 °FPassing clouds.5 mph63%30.25 "Hg22 mi
6:00 PM69 °FScattered clouds.6 mph54%30.24 "Hg17 mi
4:00 PM70 °FPartly sunny.5 mph52%30.23 "Hg22 mi
3:00 PM70 °FPartly sunny.6 mph50%30.23 "Hg11 mi
2:00 PM69 °FPassing clouds.6 mph54%30.23 "Hg8 mi
1:00 PM69 °FPassing clouds.5 mph55%30.22 "Hg9 mi
12:00 PM67 °FPassing clouds.5 mph62%30.22 "Hg9 mi
10:00 AM62 °FPassing clouds.6 mph77%30.21 "Hg12 mi
9:00 AM61 °FSunny.5 mph82%30.19 "Hg12 mi
7:00 AM56 °FPassing clouds.3 mph93%30.17 "Hg11 mi
6:00 AM58 °FOvercast.3 mph91%30.15 "Hg13 mi
4:00 AM60 °FLow clouds.3 mph94%30.13 "Hg7 mi
3:00 AM60 °FLow clouds.3 mph95%30.12 "Hg7 mi
1:00 AM60 °FOvercast.5 mph92%30.12 "Hg12 mi
12:00 AM61 °FOvercast.3 mph93%30.11 "Hg9 mi
Weather by CustomWeather, © 2014

See weather overviewHow to use our weather pages